[[{"header":{"parameterUnit":"m.s-1","parameterCategory":1,"la1":30.2991,"la2":30.254,"lo1":-89.0895,"lo2":-89.0444,"dy":0.0017,"dx":0.0017,"nx":28,"ny":28,"refTime":"2025-08-14T09:00:00:Z","depth":0,"parameterNumber":2,"parameterNumberName":"U-component_of_WINDS"},"data":[0,0,0,0,0,0,0,0,0,0,0,0,0,0,0,0,0,0,0,0,0,0,0,0,0,0,0,0,0,0,0,0,0,0,0,0,0,0,0,0,0,0,0,0,0,0,0,0,0,0,0,0,0,0,0,0,0,0,1.0622,1.0622,0,1.0697,1.0698,1.0699,1.0675,1.0673,1.0672,1.067,1.0752,1.0755,1.0759,0,0,0,0,0,0,0,0,0,0,0,0,0,1.046,1.0463,1.0622,1.0623,1.0623,1.0697,1.0698,1.0699,1.0675,1.0673,1.0671,1.0669,1.075,1.0755,1.0759,0,0,0,0,0,0,0,0,0,0,0,0,0,1.0532,1.0464,1.0621,1.062,1.0621,1.0697,1.0698,1.07,1.0675,1.0673,1.0671,1.0668,1.0749,1.0754,1.076,1.0843,0,0,1.0777,1.0779,0,0,0,0,0,0,0,0,1.0528,1.0538,1.0619,1.062,1.0621,1.0674,1.0671,1.0748,1.0676,1.0655,1.067,1.0667,1.0728,1.0735,1.0755,1.0847,1.085,1.0777,1.0781,1.0783,1.0785,0,0,0,0,0,0,0,1.0523,1.0535,1.0652,1.0621,1.0622,1.0617,1.0625,1.0686,1.0704,1.0657,1.0655,1.0664,1.0728,1.075,1.0757,1.0852,1.0777,1.0782,1.0785,1.0788,1.1016,1.1018,0,0,0,0,0,0,1.0517,1.0531,1.0649,1.0654,1.0568,1.0622,1.063,1.066,1.0704,1.0708,1.0666,1.0663,1.0741,1.075,1.0759,1.0859,1.0783,1.0788,1.0791,1.1013,1.1016,1.1019,0,0,0,0,0,0,1.0514,1.0528,1.0646,1.0592,1.0607,1.0627,1.066,1.0662,1.0684,1.0711,1.0714,1.0684,1.074,1.0752,1.0822,1.0862,1.0791,1.0796,1.101,1.1014,1.1018,1.1061,0,0,0,0,0,0,1.0509,1.0527,1.0558,1.0593,1.061,1.0707,1.0663,1.0666,1.0693,1.0689,1.0729,1.0733,1.0739,1.0814,1.0828,1.0868,1.08,1.1006,1.1012,1.1017,1.1056,1.1066,1.1074,0,0,0,0,0,1.0503,1.0568,1.0559,1.0574,1.0649,1.0709,1.0719,1.0723,1.0696,1.0728,1.0745,1.0732,1.0855,1.0821,1.0837,1.088,1.1004,1.101,1.1016,1.1052,1.1064,1.1074,0,0,0,0,0,0,1.0538,1.0572,1.0563,1.0641,1.0672,1.0705,1.0745,1.0735,1.0776,1.0771,1.0775,1.0785,1.0857,1.0876,1.0837,1.0963,1.0926,1.0935,1.0948,1.0959,1.0968,1.0962,1.0805,0,0,0,0,0,1.0554,1.0599,1.0627,1.0693,1.0709,1.0724,1.0751,1.0751,1.0784,1.0798,1.082,1.0854,1.09,1.0931,1.0975,1.1058,1.1067,1.1095,1.1105,1.1112,1.112,1.1166,1.1179,1.104,1.104,1.1039,0,0,1.0589,1.0613,1.0642,1.07,1.0724,1.0772,1.0736,1.0787,1.0823,1.0806,1.0873,1.0891,1.0929,1.1006,1.1042,1.1024,1.1161,1.112,1.1126,1.113,1.1173,1.1186,1.1198,1.1044,1.1043,1.1042,0,0,1.0676,1.0699,1.0756,1.0781,1.0817,1.0827,1.0841,1.0875,1.0886,1.0954,1.0942,1.0985,1.1065,1.1092,1.1117,1.1215,1.1204,1.1229,1.1277,1.1321,1.1332,1.1342,1.1377,1.1389,1.1237,1.1237,1.1237,0,1.0715,1.0785,1.0787,1.0839,1.0866,1.0851,1.0909,1.0934,1.0984,1.1003,1.0982,1.1082,1.1107,1.119,1.1214,1.1234,1.1251,1.1225,1.133,1.134,1.1349,1.1383,1.1396,1.124,1.124,1.124,1.1239,0,1.0831,1.0879,1.0921,1.0968,1.0999,1.1055,1.1066,1.1098,1.1095,1.1108,1.1177,1.1206,1.1256,1.1276,1.1275,1.1359,1.1347,1.1329,1.1292,1.1365,1.1397,1.141,1.1244,1.1243,1.1242,1.1242,0,0,1.0941,1.0988,1.1004,1.1025,1.1064,1.1103,1.1158,1.1205,1.1232,1.1268,1.1314,1.1382,1.1365,1.1393,1.1395,1.1434,1.1509,1.141,1.1411,1.1428,1.1604,1.1618,1.1633,1.1502,1.1505,1.1507,1.1601,0,1.1032,1.1127,1.113,1.1217,1.1263,1.125,1.1298,1.1328,1.1341,1.1383,1.1398,1.1446,1.142,1.1436,1.1474,1.1492,1.1545,1.1485,1.1547,1.1549,1.1537,1.1649,1.1664,1.1751,1.1613,1.1616,1.1617,0,1.1149,1.1187,1.1278,1.1311,1.133,1.1373,1.1417,1.1457,1.1491,1.1498,1.1529,1.1525,1.1583,1.1544,1.1624,1.1583,1.1609,1.1622,1.1625,1.1631,1.1587,1.1658,1.1779,1.1792,1.1636,1.1635,1.1633,0,1.122,1.1294,1.1358,1.1377,1.1417,1.1448,1.1466,1.1498,1.1526,1.1565,1.1584,1.1629,1.1654,1.169,1.1699,1.167,1.1779,1.1741,1.1787,1.1787,1.181,1.1809,1.1937,1.1827,1.1827,1.1827,1.1826,0,1.1321,1.1377,1.1391,1.143,1.1493,1.1497,1.156,1.1577,1.1605,1.1649,1.1641,1.1682,1.1692,1.1735,1.1743,1.1808,1.1819,1.1827,1.1828,1.1828,1.1827,1.1844,1.1838,1.183,1.1829,1.1829,1.1828,0,1.1411,1.1422,1.1491,1.1523,1.1533,1.1578,1.1606,1.1645,1.1657,1.1712,1.1725,1.1745,1.1795,1.1808,1.1869,1.1874,1.1951,1.1946,1.1939,1.1938,1.1983,1.1979,1.2128,1.2148,1.2024,1.2026,1.2027,0,1.1473,1.1516,1.1553,1.1581,1.16,1.1646,1.1674,1.168,1.171,1.1753,1.1786,1.1836,1.1876,1.1957,1.1978,1.2024,1.2021,1.207,1.2028,1.2026,1.2022,1.2019,1.2024,1.2078,1.2079,1.2081,1.2081,0,1.1584,1.1587,1.1628,1.1671,1.1705,1.174,1.1773,1.1796,1.1807,1.1842,1.1893,1.1923,1.1985,1.2034,1.2081,1.2102,1.2094,1.2094,1.2107,1.2107,1.2101,1.2105,1.196,1.2091,1.209,1.2089,1.2089,1.2088,1.1662,1.17,1.1731,1.1777,1.1802,1.1834,1.1871,1.1888,1.193,1.1979,1.1981,1.2037,1.2071,1.2132,1.2156,1.22,1.2185,1.2204,1.2209,1.2214,1.2217,1.2094,1.2209,1.2208,1.2208,1.2208,1.2208,0,1.1772,1.1792,1.1834,1.188,1.1916,1.1904,1.194,1.1972,1.202,1.2052,1.2091,1.215,1.2198,1.2222,1.227,1.2301,1.2299,1.2313,1.2311,1.2316,1.2228,1.2212,1.2314,1.2314,1.2314,1.2314,1.2314,1.2314,1.1833,1.1896,1.1904,1.1979,1.1999,1.2052,1.2074,1.2103,1.2128,1.2194,1.2233,1.2248,1.2277,1.2327,1.2371,1.2377,1.2395,1.2412,1.2416,1.2333,1.2322,1.2312,1.2297,1.2416,1.2416,1.2501,1.2501,1.2502]},{"header":{"parameterUnit":"m.s-1","parameterCategory":1,"la1":30.2991,"la2":30.254,"lo1":-89.0895,"lo2":-89.0444,"dy":0.0017,"dx":0.0017,"nx":28,"ny":28,"refTime":"2025-08-14T09:00:00:Z","depth":0,"parameterNumber":3,"parameterNumberName":"V-component_of_WINDS"},"data":[0,0,0,0,0,0,0,0,0,0,0,0,0,0,0,0,0,0,0,0,0,0,0,0,0,0,0,0,0,0,0,0,0,0,0,0,0,0,0,0,0,0,0,0,0,0,0,0,0,0,0,0,0,0,0,0,0,0,2.7187,2.7187,0,2.7147,2.7147,2.7147,2.7071,2.7069,2.7068,2.7066,2.7027,2.7028,2.7028,0,0,0,0,0,0,0,0,0,0,0,0,0,2.72,2.72,2.7187,2.7187,2.7186,2.7148,2.7147,2.7146,2.7071,2.7069,2.7067,2.7066,2.7027,2.7028,2.7028,0,0,0,0,0,0,0,0,0,0,0,0,0,2.7181,2.72,2.7187,2.7144,2.714,2.7148,2.7147,2.7146,2.7071,2.7069,2.7067,2.7065,2.7027,2.7028,2.7028,2.7076,0,0,2.703,2.703,0,0,0,0,0,0,0,0,2.7182,2.7181,2.7151,2.7147,2.7142,2.7112,2.7137,2.7123,2.7072,2.7097,2.7066,2.7064,2.7057,2.7055,2.7053,2.7074,2.7072,2.703,2.703,2.703,2.703,0,0,0,0,0,0,0,2.7184,2.7182,2.7172,2.7151,2.7145,2.7127,2.7122,2.7134,2.709,2.7095,2.7089,2.7086,2.7055,2.7052,2.7051,2.7072,2.703,2.703,2.703,2.7031,2.713,2.7132,0,0,0,0,0,0,2.7191,2.7183,2.7173,2.717,2.7157,2.7129,2.7123,2.7124,2.709,2.7083,2.7088,2.7082,2.7053,2.7051,2.705,2.7103,2.703,2.7031,2.7031,2.7128,2.7131,2.7133,0,0,0,0,0,0,2.7192,2.7191,2.7174,2.7175,2.7172,2.7131,2.7133,2.7124,2.7122,2.7084,2.7076,2.7093,2.7051,2.7049,2.707,2.7101,2.7031,2.7031,2.7125,2.7129,2.7132,2.7211,0,0,0,0,0,0,2.7192,2.7191,2.7209,2.7176,2.7172,2.7195,2.7134,2.7125,2.7123,2.7115,2.7088,2.7081,2.7049,2.7069,2.707,2.71,2.7032,2.7122,2.7127,2.7131,2.7205,2.7216,2.7226,0,0,0,0,0,2.7193,2.7233,2.721,2.7209,2.7193,2.7197,2.7194,2.7156,2.7126,2.7143,2.7119,2.7082,2.7097,2.7072,2.7072,2.7103,2.712,2.7125,2.7131,2.72,2.7214,2.7226,0,0,0,0,0,0,2.727,2.7228,2.7202,2.7232,2.7219,2.7184,2.7204,2.7172,2.7168,2.7161,2.7115,2.7109,2.7136,2.7122,2.7094,2.7147,2.7103,2.7108,2.7156,2.7168,2.7179,2.7182,2.7032,0,0,0,0,0,2.729,2.7297,2.726,2.729,2.7284,2.7246,2.7246,2.7218,2.7203,2.7197,2.7174,2.7161,2.7163,2.7165,2.7164,2.7203,2.7196,2.7224,2.7234,2.7243,2.7248,2.7268,2.728,2.715,2.715,2.715,0,0,2.7333,2.731,2.7317,2.7305,2.7291,2.7299,2.7242,2.7253,2.7258,2.7198,2.7216,2.72,2.7182,2.7212,2.7224,2.7201,2.7283,2.725,2.7257,2.7258,2.7275,2.7287,2.7298,2.7154,2.7153,2.7153,0,0,2.7414,2.7398,2.7421,2.7409,2.7388,2.7363,2.7369,2.7339,2.7325,2.7343,2.7298,2.7305,2.7309,2.7298,2.7293,2.7371,2.7337,2.7372,2.7427,2.7446,2.7457,2.7465,2.7493,2.7504,2.7378,2.7378,2.7378,0,2.7469,2.7479,2.7438,2.7451,2.7447,2.7393,2.7417,2.7407,2.7388,2.7387,2.7361,2.7365,2.735,2.7376,2.7395,2.7393,2.7399,2.7375,2.7458,2.7467,2.7474,2.7501,2.7511,2.7382,2.7382,2.7381,2.7381,0,2.7548,2.7556,2.7578,2.756,2.7559,2.7578,2.7539,2.7543,2.7515,2.7493,2.7512,2.7491,2.7485,2.749,2.7463,2.7513,2.7499,2.7467,2.7421,2.7492,2.7516,2.7525,2.7389,2.7387,2.7386,2.7385,0,0,2.7676,2.7636,2.7644,2.7636,2.761,2.7615,2.7632,2.7626,2.7631,2.762,2.7633,2.7638,2.7608,2.7602,2.7574,2.7591,2.7655,2.7557,2.7555,2.7575,2.7709,2.7733,2.7745,2.7632,2.7634,2.7635,2.771,0,2.7752,2.7777,2.774,2.7775,2.7781,2.773,2.7745,2.7731,2.7711,2.7714,2.7692,2.7696,2.7656,2.7652,2.7667,2.7644,2.7681,2.7638,2.7644,2.7645,2.765,2.7757,2.7783,2.7855,2.7719,2.7721,2.7722,0,2.7842,2.7836,2.787,2.7843,2.7844,2.7858,2.785,2.7854,2.7837,2.7821,2.7815,2.7782,2.7797,2.7753,2.7774,2.7745,2.7746,2.7735,2.7737,2.7736,2.7687,2.7759,2.7877,2.7887,2.7736,2.7735,2.7734,0,2.7932,2.7932,2.7952,2.7947,2.7915,2.7926,2.7913,2.7895,2.7894,2.7887,2.7886,2.7882,2.7879,2.7877,2.7843,2.7814,2.7868,2.7821,2.7855,2.7857,2.7869,2.7868,2.7988,2.787,2.787,2.787,2.7869,0,2.802,2.8043,2.7992,2.8005,2.803,2.7988,2.8014,2.7996,2.798,2.7989,2.7945,2.7955,2.791,2.7915,2.7889,2.791,2.7909,2.7897,2.7889,2.79,2.7902,2.79,2.7894,2.7872,2.7872,2.7871,2.7871,0,2.8124,2.8091,2.811,2.8078,2.8071,2.8091,2.8064,2.8075,2.8052,2.8064,2.8064,2.8028,2.8031,2.7998,2.7995,2.7977,2.8011,2.7995,2.8016,2.8011,2.8047,2.8044,2.8169,2.8183,2.8057,2.8058,2.8059,0,2.8182,2.8198,2.8168,2.8171,2.8161,2.8165,2.8164,2.8124,2.8125,2.8108,2.8121,2.8121,2.8118,2.8126,2.81,2.8098,2.8082,2.8126,2.8081,2.8092,2.8082,2.8082,2.8083,2.8135,2.8137,2.8138,2.8139,0,2.8288,2.8271,2.827,2.8264,2.8264,2.8258,2.8248,2.8253,2.821,2.8213,2.8216,2.8214,2.8211,2.8212,2.8205,2.8192,2.8159,2.8153,2.8161,2.8172,2.8184,2.8178,2.8041,2.815,2.8149,2.8148,2.8148,2.8147,2.837,2.8383,2.8364,2.8365,2.8354,2.8346,2.8355,2.8333,2.8335,2.8329,2.8305,2.8312,2.8296,2.8283,2.8274,2.8279,2.8258,2.8269,2.8272,2.8275,2.8282,2.8183,2.8278,2.8278,2.8277,2.8277,2.8277,0,2.8474,2.8459,2.8461,2.8449,2.845,2.8419,2.8407,2.841,2.8417,2.8404,2.8403,2.8407,2.8407,2.8382,2.8379,2.8388,2.8373,2.8389,2.8388,2.8385,2.8301,2.8295,2.8401,2.8401,2.8401,2.8401,2.8401,2.8401,2.8528,2.8547,2.8528,2.8542,2.8527,2.8534,2.853,2.8523,2.8513,2.8519,2.8519,2.8502,2.8484,2.848,2.848,2.8472,2.8473,2.8494,2.8482,2.8403,2.8391,2.838,2.8373,2.8495,2.8495,2.8565,2.8566,2.8567]}]]